Guymon, OK

8:41 AM CDT on August 30, 2016 (GMT -0500)
Guymon Municipal

Weather History for KGUY - September, 2013

Change the Weather History Date:

Thursday, September 5, 2013

  Actual Average Record
Temperature  
Mean Temperature 79 °F 75 °F  
Max Temperature 98 °F 89 °F 105 °F (2000)
Min Temperature 60 °F 61 °F 47 °F (2011)
Degree Days  
Heating Degree Days 0 0  
Month to date heating degree days 0 0  
Since 1 July heating degree days 0 1  
Cooling Degree Days 14 10  
Month to date cooling degree days 73 52  
Year to date cooling degree days 1624 1301  
Growing Degree Days 30 (Base 50)    
Moisture  
Dew Point 49 °F    
Average Humidity 42    
Maximum Humidity 67    
Minimum Humidity 17    
Precipitation  
Precipitation 0.00 in 0.05 in 1.04 in (2014)
Month to date precipitation T 0.31  
Year to date precipitation 10.55 15.08  
Snow  
Snow 0.00 in - - ()
Month to date snowfall 0.0  
Since 1 July snowfall 0.0  
Since 1 September snowfall 0.0  
Snow Depth 0.00 in    
Sea Level Pressure  
Sea Level Pressure 30.00 in    
Wind  
Wind Speed 8 mph (South)    
Max Wind Speed 17 mph    
Max Gust Speed 22 mph    
Visibility 10 miles    
Events      
T = Trace of Precipitation, MM = Missing Value Source: NWS Daily Summary

Daily Weather History Graph

Daily Weather History Graph

Search for Another Location

Airport or City:

Trip Planner

Search our weather history database for the weather conditions in past years. The results will help you decide how hot, cold, wet, or windy it might be!

Date:

Astronomy

Sep. 05, 2013 Rise Set
Actual Time 7:20 AM CDT 8:07 PM CDT
Civil Twilight 6:54 AM CDT 8:34 PM CDT
Nautical Twilight 6:23 AM CDT 9:05 PM CDT
Astronomical Twilight 5:51 AM CDT 9:36 PM CDT
Moon 7:32 AM CDT (9/5) 8:03 PM CDT (9/5)
Length of Visible Light 13h 39m
Length of Day
12h 47m
New Moon, 0% of the Moon is Illuminated
Sep 5
New Moon
Sep 12
First Quarter
Sep 19
Full
Sep 26
Last Quarter
Oct 4
New

Hourly Weather History & Observations

Time (CDT) Temp. Dew Point Humidity Pressure Visibility Wind Dir Wind Speed Gust Speed Precip Events Conditions
12:53 AM 73.9 °F 55.0 °F 52% 30.00 in 10.0 mi South 6.9 mph - N/A   Clear
1:53 AM 72.0 °F 54.0 °F 53% 30.01 in 10.0 mi South 8.1 mph - N/A   Clear
2:53 AM 71.1 °F 54.0 °F 55% 30.00 in 10.0 mi South 8.1 mph - N/A   Clear
3:53 AM 69.1 °F 54.0 °F 58% 30.01 in 10.0 mi SSW 6.9 mph - N/A   Clear
4:53 AM 66.0 °F 53.1 °F 63% 30.01 in 10.0 mi Calm Calm - N/A   Clear
5:53 AM 64.0 °F 53.1 °F 67% 30.01 in 10.0 mi Calm Calm - N/A   Clear
6:53 AM 64.0 °F 52.0 °F 65% 30.03 in 10.0 mi SW 4.6 mph - N/A   Clear
7:53 AM 62.1 °F 52.0 °F 70% 30.04 in 10.0 mi SSE 4.6 mph - N/A   Clear
8:53 AM 70.0 °F 53.1 °F 55% 30.04 in 10.0 mi South 6.9 mph - N/A   Clear
9:53 AM 77.0 °F 52.0 °F 42% 30.04 in 10.0 mi South 6.9 mph - N/A   Clear
10:53 AM 88.0 °F 46.9 °F 24% 30.02 in 10.0 mi SSW 11.5 mph - N/A   Clear
11:53 AM 91.9 °F 46.0 °F 21% 30.01 in 10.0 mi South 11.5 mph - N/A   Clear
12:53 PM 93.9 °F 46.0 °F 19% 30.00 in 10.0 mi South 12.7 mph 19.6 mph N/A   Clear
1:53 PM 96.1 °F 46.0 °F 18% 29.99 in 10.0 mi SSE 11.5 mph 19.6 mph N/A   Clear
2:53 PM 97.0 °F 46.0 °F 18% 29.98 in 10.0 mi South 11.5 mph 20.7 mph N/A   Clear
3:53 PM 96.1 °F 45.0 °F 17% 29.97 in 10.0 mi ESE 10.4 mph - N/A   Clear
4:53 PM 97.0 °F 44.1 °F 16% 29.96 in 10.0 mi SSE 12.7 mph 18.4 mph N/A   Clear
5:53 PM 96.1 °F 44.1 °F 17% 29.96 in 10.0 mi South 10.4 mph - N/A   Clear
6:53 PM 93.0 °F 46.9 °F 20% 29.96 in 10.0 mi South 6.9 mph - N/A   Clear
7:53 PM 87.1 °F 46.9 °F 25% 29.97 in 10.0 mi SSE 5.8 mph - N/A   Clear
8:53 PM 81.0 °F 45.0 °F 28% 29.98 in 10.0 mi SSE 6.9 mph - N/A   Clear
9:53 PM 75.9 °F 45.0 °F 33% 29.99 in 10.0 mi SSE 8.1 mph - N/A   Clear
10:53 PM 75.0 °F 43.0 °F 32% 29.99 in 10.0 mi SSE 8.1 mph - N/A   Clear
11:53 PM 71.1 °F 44.1 °F 38% 30.01 in 10.0 mi South 5.8 mph - N/A   Clear